WZZ44 LHBP-EGGW

Flight info

Callsign WZZ44
Flight time 2h 17m
Altitude 34000
Route GILEP DCT ZOLKU DCT BEGLA DCT FMD DCT DITIS DCT IPDUL DCT OKG DCT VELIS DCT SWALM DCT NOGRO M40 RINIS
Aircraft A21N/M-SDE1E2E3FGIJ1J4RWXY/LB1

Departure

Time 2026-05-04 17:43
Airport Budapest Liszt Ferenc International Airport (LHBP)

Arrival

Time 2026-05-04 20:01
Airport London Luton Airport (EGGW)
Time Latitude Longitude Altitude Speed Heading
2026-05-04 17:12 47.43389 19.25602 461 ft 0 kts 312°
2026-05-04 17:34 47.43381 19.25615 462 ft 4 kts 320°
2026-05-04 17:35 47.43331 19.25613 460 ft 0 kts 42°
2026-05-04 17:38 47.43334 19.25617 463 ft 2 kts 42°
2026-05-04 17:39 47.43380 19.25679 463 ft 7 kts 44°
2026-05-04 17:39 47.43422 19.25736 463 ft 10 kts 43°
2026-05-04 17:39 47.43466 19.25793 463 ft 7 kts 29°
2026-05-04 17:40 47.43514 19.25757 463 ft 10 kts 315°
2026-05-04 17:40 47.43577 19.25712 463 ft 12 kts 21°
2026-05-04 17:40 47.43641 19.25785 463 ft 11 kts 42°
2026-05-04 17:40 47.43702 19.25868 463 ft 13 kts 42°
2026-05-04 17:41 47.43763 19.25949 463 ft 12 kts 41°
2026-05-04 17:41 47.43825 19.26031 463 ft 11 kts 42°
2026-05-04 17:41 47.43890 19.26116 463 ft 14 kts 41°
2026-05-04 17:41 47.43967 19.26219 464 ft 16 kts 42°
2026-05-04 17:42 47.44049 19.26345 470 ft 18 kts 61°
2026-05-04 17:42 47.44073 19.26478 476 ft 10 kts 82°
2026-05-04 17:42 47.44062 19.26531 473 ft 3 kts 129°
2026-05-04 17:42 47.43999 19.26637 475 ft 42 kts 132°
2026-05-04 17:43 47.43632 19.27229 477 ft 112 kts 132°
2026-05-04 17:43 47.42978 19.28293 466 ft 164 kts 134°
2026-05-04 17:43 47.42203 19.29575 928 ft 164 kts 134°
2026-05-04 17:43 47.41539 19.30958 1445 ft 169 kts 115°
2026-05-04 17:44 47.41038 19.32572 1904 ft 179 kts 122°
2026-05-04 17:44 47.40412 19.34243 2408 ft 193 kts 123°
2026-05-04 17:44 47.39739 19.36009 2935 ft 207 kts 123°
2026-05-04 17:44 47.39011 19.37923 3501 ft 221 kts 123°
2026-05-04 17:45 47.38183 19.39938 3968 ft 235 kts 133°
2026-05-04 17:45 47.36913 19.41445 4645 ft 236 kts 158°
2026-05-04 17:45 47.35324 19.41981 5350 ft 238 kts 182°
2026-05-04 17:45 47.33706 19.41452 6039 ft 242 kts 206°
2026-05-04 17:46 47.32371 19.39938 6720 ft 246 kts 231°
2026-05-04 17:46 47.31496 19.37756 7433 ft 251 kts 243°
2026-05-04 17:46 47.30731 19.35358 7938 ft 266 kts 244°
2026-05-04 17:46 47.29917 19.32846 8527 ft 276 kts 243°
2026-05-04 17:47 47.29073 19.30320 9271 ft 280 kts 242°
2026-05-04 17:47 47.28193 19.27736 10046 ft 283 kts 242°
2026-05-04 17:47 47.27281 19.25093 10506 ft 298 kts 242°
2026-05-04 17:47 47.26310 19.22304 10840 ft 315 kts 242°
2026-05-04 17:48 47.25289 19.19382 11333 ft 325 kts 242°
2026-05-04 17:48 47.24245 19.16397 12014 ft 329 kts 243°
2026-05-04 17:48 47.23549 19.13178 12719 ft 334 kts 262°
2026-05-04 17:48 47.23645 19.09751 13437 ft 340 kts 281°
2026-05-04 17:49 47.24462 19.06473 14133 ft 344 kts 293°
2026-05-04 17:49 47.25504 19.03284 14772 ft 347 kts 295°
2026-05-04 17:49 47.26554 19.00066 15427 ft 350 kts 294°
2026-05-04 17:49 47.27579 18.96853 16100 ft 352 kts 294°
2026-05-04 17:50 47.28612 18.93568 16763 ft 355 kts 293°
2026-05-04 17:50 47.29645 18.90256 17430 ft 358 kts 294°
2026-05-04 17:50 47.30686 18.86900 18053 ft 362 kts 294°
2026-05-04 17:50 47.31733 18.83513 18624 ft 365 kts 294°
2026-05-04 17:51 47.32787 18.80099 19212 ft 367 kts 294°
2026-05-04 17:51 47.33846 18.76662 19801 ft 368 kts 294°
2026-05-04 17:51 47.34909 18.73212 20343 ft 371 kts 294°
2026-05-04 17:51 47.35978 18.69731 20865 ft 374 kts 294°
2026-05-04 17:52 47.37055 18.66222 21432 ft 376 kts 294°
2026-05-04 17:52 47.38122 18.62746 21974 ft 379 kts 294°
2026-05-04 17:52 47.39211 18.59185 22467 ft 382 kts 293°
2026-05-04 17:52 47.40305 18.55604 23010 ft 384 kts 293°
2026-05-04 17:53 47.41400 18.51990 23490 ft 388 kts 294°
2026-05-04 17:53 47.42506 18.48348 23936 ft 389 kts 293°
2026-05-04 17:53 47.43618 18.44687 24334 ft 392 kts 294°
2026-05-04 17:53 47.44737 18.40997 24752 ft 394 kts 294°
2026-05-04 17:54 47.45863 18.37292 25136 ft 397 kts 294°
2026-05-04 17:54 47.47001 18.33555 25542 ft 399 kts 294°
2026-05-04 17:54 47.48140 18.29805 25966 ft 401 kts 294°
2026-05-04 17:54 47.49269 18.26084 26332 ft 403 kts 294°
2026-05-04 17:55 47.50416 18.22290 26729 ft 405 kts 294°
2026-05-04 17:55 47.51564 18.18474 27170 ft 406 kts 294°
2026-05-04 17:55 47.52713 18.14655 27560 ft 407 kts 294°
2026-05-04 17:55 47.53866 18.10805 27899 ft 410 kts 294°
2026-05-04 17:56 47.55021 18.06929 28226 ft 413 kts 294°
2026-05-04 17:56 47.56185 18.03032 28594 ft 415 kts 294°
2026-05-04 17:56 47.57355 17.99120 28883 ft 418 kts 294°
2026-05-04 17:56 47.58534 17.95173 29205 ft 420 kts 294°
2026-05-04 17:57 47.59719 17.91199 29530 ft 422 kts 294°
2026-05-04 17:57 47.60889 17.87270 29864 ft 424 kts 294°
2026-05-04 17:57 47.62079 17.83260 30120 ft 426 kts 294°
2026-05-04 17:57 47.63272 17.79237 30389 ft 428 kts 294°
2026-05-04 17:58 47.64468 17.75195 30673 ft 429 kts 294°
2026-05-04 17:58 47.65670 17.71135 30951 ft 430 kts 294°
2026-05-04 17:58 47.66873 17.67070 31237 ft 431 kts 294°
2026-05-04 17:58 47.68070 17.63007 31593 ft 429 kts 294°
2026-05-04 17:59 47.69261 17.58950 31939 ft 428 kts 294°
2026-05-04 17:59 47.70446 17.54909 32278 ft 426 kts 294°
2026-05-04 17:59 47.72784 17.46919 32931 ft 423 kts 294°
2026-05-04 18:00 47.73953 17.42917 33262 ft 421 kts 294°
2026-05-04 18:00 47.75116 17.38931 33587 ft 420 kts 294°
2026-05-04 18:00 47.76274 17.34957 33889 ft 418 kts 294°
2026-05-04 18:00 47.77429 17.30989 33997 ft 418 kts 294°
2026-05-04 18:01 47.78579 17.27032 33994 ft 418 kts 294°
2026-05-04 18:01 47.81372 17.19494 34232 ft 417 kts 307°
2026-05-04 18:02 47.84901 17.12634 34617 ft 417 kts 307°
2026-05-04 18:02 47.86658 17.09196 34781 ft 418 kts 307°
2026-05-04 18:02 47.88387 17.05785 34930 ft 418 kts 306°
2026-05-04 18:02 47.90135 17.02320 35075 ft 419 kts 306°
2026-05-04 18:03 47.91886 16.98846 35224 ft 420 kts 306°
2026-05-04 18:03 47.93639 16.95357 35361 ft 420 kts 306°
2026-05-04 18:03 47.95387 16.91867 35496 ft 421 kts 306°
2026-05-04 18:03 47.97142 16.88362 35625 ft 421 kts 306°
2026-05-04 18:04 47.98891 16.84857 35731 ft 422 kts 306°
2026-05-04 18:04 48.00643 16.81335 35862 ft 423 kts 306°
2026-05-04 18:04 48.04152 16.74280 35974 ft 423 kts 306°
2026-05-04 18:05 48.05884 16.70797 35955 ft 423 kts 306°
2026-05-04 18:05 48.09398 16.63741 35950 ft 423 kts 306°
2026-05-04 18:06 48.14649 16.53153 35936 ft 422 kts 306°
2026-05-04 18:06 48.18139 16.46083 35935 ft 422 kts 306°
2026-05-04 18:07 48.21601 16.39044 35933 ft 422 kts 305°
2026-05-04 18:07 48.25082 16.31943 35927 ft 422 kts 305°
2026-05-04 18:08 48.28559 16.24840 35926 ft 422 kts 305°
2026-05-04 18:08 48.32035 16.17730 35922 ft 422 kts 305°
2026-05-04 18:09 48.38952 16.03499 35906 ft 423 kts 304°
2026-05-04 18:10 48.42416 15.96343 35906 ft 423 kts 304°
2026-05-04 18:10 48.45874 15.89181 35900 ft 422 kts 304°
2026-05-04 18:11 48.49315 15.82041 35901 ft 423 kts 304°
2026-05-04 18:11 48.52776 15.74835 35900 ft 423 kts 304°
2026-05-04 18:12 48.56195 15.67686 35901 ft 423 kts 304°
2026-05-04 18:12 48.59644 15.60473 35908 ft 423 kts 304°
2026-05-04 18:13 48.63087 15.53253 35910 ft 423 kts 304°
2026-05-04 18:14 48.68255 15.42419 35917 ft 424 kts 304°
2026-05-04 18:14 48.71684 15.35167 35917 ft 424 kts 303°
2026-05-04 18:15 48.78514 15.20696 35918 ft 423 kts 303°
2026-05-04 18:16 48.81924 15.13423 35919 ft 423 kts 303°
2026-05-04 18:16 48.85339 15.06143 35920 ft 423 kts 303°
2026-05-04 18:17 48.90427 14.95243 35917 ft 424 kts 303°
2026-05-04 18:18 48.95527 14.84253 35913 ft 424 kts 303°
2026-05-04 18:18 48.98936 14.76894 35915 ft 424 kts 303°
2026-05-04 18:19 49.04013 14.65904 35927 ft 424 kts 303°
2026-05-04 18:19 49.07385 14.58587 35925 ft 425 kts 302°
2026-05-04 18:20 49.10777 14.51201 35920 ft 425 kts 302°
2026-05-04 18:20 49.14171 14.43799 35926 ft 425 kts 302°
2026-05-04 18:21 49.17555 14.36392 35926 ft 425 kts 302°
2026-05-04 18:21 49.20911 14.29025 35937 ft 426 kts 302°
2026-05-04 18:22 49.24289 14.21586 35931 ft 426 kts 302°
2026-05-04 18:22 49.27659 14.14145 35935 ft 425 kts 302°
2026-05-04 18:23 49.31025 14.06687 35935 ft 425 kts 302°
2026-05-04 18:23 49.34382 13.99222 35946 ft 425 kts 302°
2026-05-04 18:24 49.37705 13.91824 35949 ft 424 kts 301°
2026-05-04 18:24 49.41055 13.84346 35943 ft 425 kts 301°
2026-05-04 18:25 49.44476 13.76924 35939 ft 426 kts 302°
2026-05-04 18:25 49.47921 13.69527 35940 ft 426 kts 302°
2026-05-04 18:26 49.51364 13.62117 35941 ft 426 kts 302°
2026-05-04 18:26 49.54805 13.54692 35947 ft 426 kts 302°
2026-05-04 18:27 49.58230 13.47289 35940 ft 427 kts 302°
2026-05-04 18:27 49.61674 13.39822 35937 ft 428 kts 302°
2026-05-04 18:28 49.65115 13.32330 35940 ft 428 kts 302°
2026-05-04 18:28 49.68546 13.24845 35938 ft 427 kts 302°
2026-05-04 18:29 49.71962 13.17362 35937 ft 426 kts 302°
2026-05-04 18:29 49.75361 13.09911 35945 ft 426 kts 302°
2026-05-04 18:30 49.80476 12.98648 35949 ft 426 kts 302°
2026-05-04 18:31 49.83883 12.91130 35946 ft 426 kts 302°
2026-05-04 18:31 49.87279 12.83598 35947 ft 427 kts 302°
2026-05-04 18:32 49.90653 12.76095 35958 ft 428 kts 301°
2026-05-04 18:32 49.94053 12.68517 35959 ft 428 kts 301°
2026-05-04 18:33 49.97445 12.60943 35959 ft 425 kts 301°
2026-05-04 18:33 50.00812 12.53388 35954 ft 425 kts 301°
2026-05-04 18:34 50.04178 12.45827 35957 ft 425 kts 301°
2026-05-04 18:34 50.07110 12.37917 35961 ft 420 kts 288°
2026-05-04 18:35 50.09013 12.29282 35954 ft 420 kts 285°
2026-05-04 18:35 50.10838 12.20756 35952 ft 420 kts 285°
2026-05-04 18:36 50.12701 12.12140 35958 ft 420 kts 285°
2026-05-04 18:36 50.14565 12.03512 35960 ft 420 kts 285°
2026-05-04 18:37 50.16419 11.94884 35972 ft 420 kts 285°
2026-05-04 18:37 50.18261 11.86299 35966 ft 420 kts 285°
2026-05-04 18:38 50.20101 11.77660 35966 ft 420 kts 285°
2026-05-04 18:38 50.21940 11.69012 35963 ft 420 kts 285°
2026-05-04 18:39 50.23770 11.60352 35962 ft 420 kts 285°
2026-05-04 18:39 50.25593 11.51689 35967 ft 420 kts 285°
2026-05-04 18:40 50.27408 11.43020 35960 ft 420 kts 285°
2026-05-04 18:40 50.29208 11.34393 35959 ft 420 kts 285°
2026-05-04 18:41 50.31017 11.25697 35960 ft 420 kts 285°
2026-05-04 18:41 50.32816 11.16992 35959 ft 420 kts 285°
2026-05-04 18:42 50.34609 11.08288 35968 ft 420 kts 284°
2026-05-04 18:42 50.36395 10.99581 35968 ft 419 kts 284°
2026-05-04 18:43 50.38149 10.90947 35965 ft 418 kts 284°
2026-05-04 18:43 50.39908 10.82266 35967 ft 418 kts 284°
2026-05-04 18:44 50.41668 10.73573 35968 ft 418 kts 284°
2026-05-04 18:44 50.43418 10.64877 35974 ft 419 kts 284°
2026-05-04 18:45 50.45172 10.56157 35965 ft 419 kts 284°
2026-05-04 18:45 50.46919 10.47437 35965 ft 419 kts 284°
2026-05-04 18:46 50.48662 10.38783 35964 ft 419 kts 284°
2026-05-04 18:46 50.50414 10.30061 35965 ft 419 kts 284°
2026-05-04 18:47 50.52154 10.21336 35978 ft 419 kts 283°
2026-05-04 18:47 50.53893 10.12588 35967 ft 419 kts 283°
2026-05-04 18:48 50.55623 10.03839 35965 ft 419 kts 283°
2026-05-04 18:48 50.57348 9.95081 35965 ft 419 kts 283°
2026-05-04 18:49 50.59055 9.86378 35967 ft 419 kts 283°
2026-05-04 18:49 50.60768 9.77613 35978 ft 420 kts 283°
2026-05-04 18:50 50.62476 9.68816 35967 ft 420 kts 283°
2026-05-04 18:50 50.64178 9.60007 35961 ft 421 kts 283°
2026-05-04 18:51 50.65882 9.51192 35964 ft 421 kts 283°
2026-05-04 18:51 50.67574 9.42368 35962 ft 420 kts 283°
2026-05-04 18:52 50.69246 9.33605 35970 ft 420 kts 282°
2026-05-04 18:52 50.70919 9.24783 35959 ft 420 kts 282°
2026-05-04 18:53 50.72786 9.16034 35957 ft 422 kts 286°
2026-05-04 18:53 50.74853 9.07362 35953 ft 422 kts 286°
2026-05-04 18:54 50.76909 8.98681 35960 ft 422 kts 286°
2026-05-04 18:54 50.78941 8.90064 35959 ft 421 kts 285°
2026-05-04 18:55 50.80975 8.81395 35963 ft 421 kts 285°
2026-05-04 18:55 50.84013 8.68364 35967 ft 421 kts 285°
2026-05-04 18:56 50.86036 8.59684 35969 ft 421 kts 285°
2026-05-04 18:56 50.88034 8.51037 35971 ft 421 kts 285°
2026-05-04 18:57 50.90050 8.42323 35985 ft 423 kts 285°
2026-05-04 18:57 50.92066 8.33571 35982 ft 423 kts 285°
2026-05-04 18:58 50.94068 8.24807 35988 ft 423 kts 285°
2026-05-04 18:58 50.96071 8.16032 35987 ft 423 kts 285°
2026-05-04 18:59 50.98068 8.07257 35987 ft 423 kts 285°
2026-05-04 18:59 51.00043 7.98523 35989 ft 424 kts 284°
2026-05-04 19:00 51.02030 7.89686 35989 ft 425 kts 284°
2026-05-04 19:00 51.04012 7.80862 35987 ft 424 kts 284°
2026-05-04 19:01 51.05976 7.72026 35985 ft 424 kts 284°
2026-05-04 19:01 51.07945 7.63182 35985 ft 424 kts 284°
2026-05-04 19:02 51.09892 7.54393 35990 ft 424 kts 284°
2026-05-04 19:02 51.11844 7.45554 35985 ft 423 kts 284°
2026-05-04 19:03 51.13789 7.36715 35981 ft 423 kts 284°
2026-05-04 19:03 51.15717 7.27871 35978 ft 423 kts 284°
2026-05-04 19:04 51.17631 7.19017 35978 ft 423 kts 284°
2026-05-04 19:04 51.19544 7.10205 35983 ft 424 kts 284°
2026-05-04 19:05 51.21453 7.01290 35965 ft 425 kts 284°
2026-05-04 19:05 51.23374 6.92375 35970 ft 425 kts 284°
2026-05-04 19:06 51.25284 6.83446 35965 ft 425 kts 284°
2026-05-04 19:06 51.27191 6.74518 35966 ft 425 kts 284°
2026-05-04 19:07 51.29074 6.65641 35975 ft 425 kts 283°
2026-05-04 19:07 51.30967 6.56677 35966 ft 426 kts 283°
2026-05-04 19:08 51.32861 6.47697 35957 ft 426 kts 283°
2026-05-04 19:08 51.34741 6.38708 35960 ft 426 kts 283°
2026-05-04 19:09 51.36609 6.29712 35963 ft 426 kts 283°
2026-05-04 19:09 51.38463 6.20776 35977 ft 427 kts 283°
2026-05-04 19:10 51.40326 6.11736 35966 ft 428 kts 283°
2026-05-04 19:10 51.42177 6.02672 35963 ft 428 kts 283°
2026-05-04 19:11 51.43723 5.95141 35968 ft 428 kts 283°
2026-05-04 19:11 51.45871 5.84597 35960 ft 428 kts 283°
2026-05-04 19:12 51.48625 5.70969 35964 ft 430 kts 283°
2026-05-04 19:13 51.50466 5.61840 35962 ft 430 kts 283°
2026-05-04 19:13 51.51987 5.54246 35966 ft 430 kts 283°
2026-05-04 19:14 51.54105 5.43616 35964 ft 430 kts 283°
2026-05-04 19:14 51.55634 5.35959 35961 ft 430 kts 283°
2026-05-04 19:15 51.57420 5.26859 35973 ft 431 kts 283°
2026-05-04 19:15 51.59522 5.16093 35968 ft 432 kts 283°
2026-05-04 19:16 51.61025 5.08431 35967 ft 432 kts 283°
2026-05-04 19:16 51.62832 4.99205 35966 ft 432 kts 283°
2026-05-04 19:17 51.64626 4.89977 35966 ft 432 kts 283°
2026-05-04 19:17 51.66394 4.80808 35973 ft 432 kts 284°
2026-05-04 19:18 51.68175 4.71558 35966 ft 432 kts 284°
2026-05-04 19:18 51.69933 4.62318 35966 ft 431 kts 283°
2026-05-04 19:19 51.71693 4.53073 35962 ft 431 kts 283°
2026-05-04 19:19 51.73433 4.43885 35969 ft 431 kts 283°
2026-05-04 19:20 51.75172 4.34643 35968 ft 430 kts 283°
2026-05-04 19:20 51.76890 4.25439 35795 ft 424 kts 283°
2026-05-04 19:20 51.77748 4.20861 35469 ft 429 kts 283°
2026-05-04 19:21 51.78608 4.16223 35144 ft 433 kts 283°
2026-05-04 19:21 51.79474 4.11559 34792 ft 433 kts 283°
2026-05-04 19:21 51.80339 4.06898 34434 ft 434 kts 283°
2026-05-04 19:21 51.81203 4.02228 34090 ft 434 kts 283°
2026-05-04 19:22 51.82054 3.97623 33701 ft 434 kts 283°
2026-05-04 19:22 51.82911 3.92927 33293 ft 436 kts 283°
2026-05-04 19:22 51.83764 3.88224 32911 ft 438 kts 283°
2026-05-04 19:22 51.84632 3.83493 32530 ft 439 kts 283°
2026-05-04 19:23 51.85508 3.78753 32158 ft 441 kts 283°
2026-05-04 19:23 51.86383 3.73989 31797 ft 441 kts 283°
2026-05-04 19:23 51.87250 3.69241 31431 ft 440 kts 283°
2026-05-04 19:23 51.88108 3.64503 31074 ft 438 kts 283°
2026-05-04 19:24 51.88963 3.59762 30720 ft 437 kts 283°
2026-05-04 19:24 51.89812 3.55044 30372 ft 436 kts 283°
2026-05-04 19:24 51.90660 3.50338 30031 ft 435 kts 283°
2026-05-04 19:24 51.91498 3.45674 29895 ft 440 kts 283°
2026-05-04 19:25 51.92350 3.40891 30046 ft 443 kts 283°
2026-05-04 19:25 51.94047 3.31340 30046 ft 440 kts 282°
2026-05-04 19:25 51.94883 3.26603 29453 ft 435 kts 283°
2026-05-04 19:26 51.95719 3.21862 28623 ft 443 kts 283°
2026-05-04 19:26 51.96348 3.16985 27921 ft 439 kts 272°
2026-05-04 19:26 51.96291 3.12083 27494 ft 433 kts 262°
2026-05-04 19:26 51.95970 3.07244 27186 ft 430 kts 261°
2026-05-04 19:27 51.95631 3.02474 26912 ft 437 kts 261°
2026-05-04 19:27 51.95290 2.97554 26636 ft 439 kts 262°
2026-05-04 19:27 51.94959 2.92641 26261 ft 437 kts 262°
2026-05-04 19:27 51.94634 2.87781 25834 ft 433 kts 262°
2026-05-04 19:28 51.94310 2.82913 25399 ft 439 kts 262°
2026-05-04 19:28 51.93981 2.77993 24967 ft 439 kts 263°
2026-05-04 19:28 51.93651 2.73081 24574 ft 437 kts 263°
2026-05-04 19:28 51.93322 2.68204 24197 ft 433 kts 263°
2026-05-04 19:29 51.92993 2.63383 23838 ft 430 kts 263°
2026-05-04 19:29 51.92661 2.58560 23465 ft 428 kts 263°
2026-05-04 19:29 51.92335 2.53826 23056 ft 428 kts 263°
2026-05-04 19:29 51.92004 2.49058 22652 ft 426 kts 263°
2026-05-04 19:30 51.91676 2.44320 22248 ft 421 kts 263°
2026-05-04 19:30 51.91743 2.39579 21852 ft 422 kts 278°
2026-05-04 19:30 51.92565 2.35005 21465 ft 424 kts 289°
2026-05-04 19:30 51.93679 2.30579 21086 ft 424 kts 291°
2026-05-04 19:31 51.94804 2.26179 20704 ft 420 kts 290°
2026-05-04 19:31 51.95898 2.21808 20323 ft 416 kts 290°
2026-05-04 19:31 51.96973 2.17437 19947 ft 418 kts 290°
2026-05-04 19:31 51.98036 2.13081 19578 ft 414 kts 289°
2026-05-04 19:32 51.99084 2.08759 19218 ft 410 kts 289°
2026-05-04 19:32 52.00125 2.04461 18863 ft 409 kts 289°
2026-05-04 19:32 52.01147 2.00214 18525 ft 410 kts 289°
2026-05-04 19:32 52.02187 1.95912 18237 ft 409 kts 290°
2026-05-04 19:33 52.03227 1.91626 18026 ft 406 kts 289°
2026-05-04 19:33 52.04253 1.87367 17992 ft 406 kts 290°
2026-05-04 19:33 52.05280 1.83086 18015 ft 407 kts 290°
2026-05-04 19:33 52.06308 1.78805 18025 ft 407 kts 290°
2026-05-04 19:34 52.07333 1.74524 18034 ft 407 kts 290°
2026-05-04 19:34 52.08356 1.70248 18037 ft 405 kts 289°
2026-05-04 19:34 52.09376 1.65970 18038 ft 407 kts 290°
2026-05-04 19:34 52.10377 1.61747 18042 ft 405 kts 289°
2026-05-04 19:35 52.11385 1.57464 18044 ft 405 kts 289°
2026-05-04 19:35 52.12403 1.53196 18044 ft 404 kts 289°
2026-05-04 19:35 52.13417 1.48934 18041 ft 405 kts 289°
2026-05-04 19:35 52.14434 1.44640 18041 ft 408 kts 290°
2026-05-04 19:36 52.15446 1.40345 18038 ft 403 kts 289°
2026-05-04 19:36 52.16277 1.36124 18019 ft 382 kts 280°
2026-05-04 19:36 52.16671 1.31905 17561 ft 377 kts 276°
2026-05-04 19:36 52.16998 1.27684 16992 ft 374 kts 276°
2026-05-04 19:37 52.17317 1.23553 16466 ft 371 kts 276°
2026-05-04 19:37 52.17638 1.19410 15949 ft 367 kts 276°
2026-05-04 19:37 52.17957 1.15299 15441 ft 364 kts 276°
2026-05-04 19:37 52.18275 1.11213 14959 ft 363 kts 276°
2026-05-04 19:38 52.18590 1.07159 14630 ft 361 kts 277°
2026-05-04 19:38 52.18905 1.03110 14362 ft 360 kts 277°
2026-05-04 19:38 52.19217 0.99065 14113 ft 358 kts 277°
2026-05-04 19:38 52.19526 0.95042 13872 ft 359 kts 277°
2026-05-04 19:39 52.19829 0.91021 13637 ft 356 kts 276°
2026-05-04 19:39 52.20130 0.87057 13367 ft 345 kts 276°
2026-05-04 19:39 52.20419 0.83243 13101 ft 333 kts 277°
2026-05-04 19:39 52.20693 0.79635 13008 ft 316 kts 276°
2026-05-04 19:40 52.20951 0.76180 13002 ft 298 kts 276°
2026-05-04 19:40 52.21198 0.72846 13017 ft 295 kts 276°
2026-05-04 19:40 52.21444 0.69537 13032 ft 295 kts 276°
2026-05-04 19:40 52.21690 0.66212 13041 ft 294 kts 276°
2026-05-04 19:41 52.21933 0.62894 13043 ft 295 kts 276°
2026-05-04 19:41 52.22177 0.59577 12961 ft 294 kts 276°
2026-05-04 19:41 52.22419 0.56274 12699 ft 293 kts 276°
2026-05-04 19:41 52.22660 0.52987 12404 ft 291 kts 276°
2026-05-04 19:42 52.22891 0.49713 12098 ft 291 kts 276°
2026-05-04 19:42 52.23119 0.46436 11800 ft 289 kts 276°
2026-05-04 19:42 52.23344 0.43239 11503 ft 287 kts 276°
2026-05-04 19:42 52.23575 0.39999 11205 ft 288 kts 276°
2026-05-04 19:43 52.23807 0.36758 11038 ft 287 kts 276°
2026-05-04 19:43 52.24037 0.33532 11017 ft 286 kts 276°
2026-05-04 19:43 52.24268 0.30319 11028 ft 285 kts 276°
2026-05-04 19:43 52.24497 0.27099 10908 ft 283 kts 276°
2026-05-04 19:44 52.24727 0.23926 10503 ft 281 kts 276°
2026-05-04 19:44 52.24953 0.20775 10075 ft 279 kts 276°
2026-05-04 19:44 52.25173 0.17673 9626 ft 278 kts 276°
2026-05-04 19:44 52.25012 0.14566 9141 ft 277 kts 255°
2026-05-04 19:45 52.24270 0.11688 8683 ft 276 kts 238°
2026-05-04 19:45 52.23119 0.09189 8257 ft 275 kts 232°
2026-05-04 19:45 52.21912 0.06775 8053 ft 274 kts 232°
2026-05-04 19:45 52.20708 0.04358 8018 ft 274 kts 232°
2026-05-04 19:46 52.19516 0.01940 8028 ft 274 kts 233°
2026-05-04 19:46 52.18332 -0.00471 7798 ft 270 kts 233°
2026-05-04 19:46 52.17162 -0.02860 7366 ft 269 kts 233°
2026-05-04 19:46 52.16002 -0.05238 6937 ft 268 kts 233°
2026-05-04 19:47 52.14845 -0.07606 6527 ft 266 kts 233°
2026-05-04 19:47 52.13698 -0.09956 6138 ft 265 kts 233°
2026-05-04 19:47 52.12562 -0.12276 6008 ft 266 kts 233°
2026-05-04 19:47 52.11411 -0.14625 5993 ft 266 kts 232°
2026-05-04 19:48 52.10251 -0.16976 6001 ft 266 kts 232°
2026-05-04 19:48 52.09046 -0.19237 5848 ft 262 kts 230°
2026-05-04 19:48 52.07881 -0.21357 5436 ft 262 kts 230°
2026-05-04 19:48 52.06665 -0.23570 5083 ft 263 kts 230°
2026-05-04 19:49 52.05445 -0.25786 5004 ft 263 kts 230°
2026-05-04 19:49 52.04223 -0.28009 4990 ft 263 kts 229°
2026-05-04 19:49 52.03003 -0.30221 5008 ft 262 kts 230°
2026-05-04 19:49 52.01803 -0.32396 5015 ft 262 kts 229°
2026-05-04 19:50 52.00594 -0.34589 5023 ft 260 kts 230°
2026-05-04 19:50 51.99561 -0.36982 5012 ft 260 kts 246°
2026-05-04 19:50 51.98978 -0.39750 5027 ft 257 kts 255°
2026-05-04 19:50 51.98480 -0.42564 5025 ft 260 kts 255°
2026-05-04 19:51 51.97849 -0.45317 5020 ft 262 kts 242°
2026-05-04 19:51 51.96824 -0.47668 5017 ft 247 kts 233°
2026-05-04 19:51 51.95789 -0.49770 5007 ft 230 kts 233°
2026-05-04 19:51 51.94799 -0.51782 5007 ft 228 kts 233°
2026-05-04 19:52 51.93803 -0.53810 5016 ft 230 kts 233°
2026-05-04 19:52 51.92825 -0.55812 5018 ft 229 kts 233°
2026-05-04 19:52 51.91831 -0.57849 5025 ft 231 kts 233°
2026-05-04 19:52 51.90857 -0.59874 5028 ft 227 kts 234°
2026-05-04 19:53 51.90019 -0.62009 5017 ft 223 kts 249°
2026-05-04 19:53 51.89575 -0.64296 5007 ft 203 kts 257°
2026-05-04 19:53 51.89242 -0.66397 4987 ft 184 kts 256°
2026-05-04 19:53 51.88909 -0.68438 5003 ft 189 kts 256°
2026-05-04 19:54 51.88559 -0.70489 5014 ft 191 kts 255°
2026-05-04 19:54 51.88202 -0.72535 5022 ft 191 kts 255°
2026-05-04 19:54 51.87690 -0.74479 5013 ft 190 kts 230°
2026-05-04 19:54 51.86571 -0.75623 4986 ft 194 kts 194°
2026-05-04 19:55 51.85235 -0.75513 4596 ft 196 kts 164°
2026-05-04 19:55 51.83940 -0.74789 4183 ft 196 kts 161°
2026-05-04 19:55 51.82665 -0.74075 4015 ft 194 kts 156°
2026-05-04 19:55 51.81685 -0.72644 3990 ft 193 kts 114°
2026-05-04 19:56 51.81451 -0.70537 3926 ft 192 kts 79°
2026-05-04 19:56 51.81789 -0.68470 3781 ft 191 kts 69°
2026-05-04 19:56 51.82236 -0.66475 3566 ft 187 kts 68°
2026-05-04 19:56 51.82642 -0.64542 3317 ft 181 kts 70°
2026-05-04 19:57 51.82996 -0.62628 3066 ft 174 kts 71°
2026-05-04 19:57 51.83312 -0.60826 2987 ft 161 kts 70°
2026-05-04 19:57 51.83615 -0.59091 2990 ft 161 kts 71°
2026-05-04 19:57 51.83917 -0.57351 2955 ft 161 kts 72°
2026-05-04 19:58 51.84220 -0.55602 2784 ft 161 kts 72°
2026-05-04 19:58 51.84519 -0.53874 2578 ft 160 kts 71°
2026-05-04 19:58 51.84816 -0.52157 2367 ft 157 kts 71°
2026-05-04 19:58 51.85104 -0.50490 2194 ft 156 kts 71°
2026-05-04 19:59 51.85387 -0.48852 1960 ft 143 kts 72°
2026-05-04 19:59 51.85637 -0.47409 1753 ft 128 kts 71°
2026-05-04 19:59 51.85877 -0.46021 1559 ft 129 kts 72°
2026-05-04 19:59 51.86119 -0.44624 1372 ft 129 kts 72°
2026-05-04 20:00 51.86362 -0.43217 1186 ft 130 kts 72°
2026-05-04 20:00 51.86603 -0.41815 1000 ft 129 kts 72°
2026-05-04 20:00 51.86844 -0.40410 809 ft 129 kts 71°
2026-05-04 20:00 51.87084 -0.39031 636 ft 128 kts 71°
2026-05-04 20:01 51.87315 -0.37687 527 ft 113 kts 73°
2026-05-04 20:01 51.87462 -0.36849 528 ft 35 kts 74°
2026-05-04 20:01 51.87522 -0.36505 529 ft 32 kts 75°
2026-05-04 20:01 51.87582 -0.36155 523 ft 33 kts 75°
2026-05-04 20:02 51.87628 -0.35936 521 ft 14 kts 40°
2026-05-04 20:02 51.87726 -0.35949 521 ft 16 kts 343°
2026-05-04 20:02 51.87783 -0.36076 523 ft 11 kts 254°
2026-05-04 20:02 51.87761 -0.36211 523 ft 13 kts 254°
2026-05-04 20:03 51.87734 -0.36367 524 ft 15 kts 255°
2026-05-04 20:03 51.87703 -0.36547 526 ft 18 kts 255°
2026-05-04 20:03 51.87669 -0.36750 528 ft 19 kts 255°
2026-05-04 20:03 51.87647 -0.36872 531 ft 7 kts 255°
2026-05-04 20:04 51.87668 -0.36942 529 ft 8 kts 329°
2026-05-04 20:04 51.87724 -0.36977 526 ft 9 kts 342°
2026-05-04 20:04 51.87779 -0.37006 521 ft 8 kts 342°
2026-05-04 20:04 51.87838 -0.37037 518 ft 9 kts 342°
2026-05-04 20:05 51.87901 -0.37070 514 ft 10 kts 342°
2026-05-04 20:05 51.87975 -0.37109 514 ft 12 kts 342°
2026-05-04 20:05 51.88042 -0.37155 514 ft 7 kts 312°
2026-05-04 20:05 51.88036 -0.37222 514 ft 8 kts 212°
2026-05-04 20:06 51.87995 -0.37214 514 ft 5 kts 160°
2026-05-04 20:06 51.87982 -0.37207 514 ft 1 kts 162°